Mobile Downtown Airport Mobile US
ICAO: KBFM
IATA: BFM
Category: Medium
Scheduled Services: No

Elevation: 26 ft
TransAlt. 18000 ft.

Airport Communications:
APP/DEP:118.5
ATIS:135.575
CTAF:118.8
GND:121.7
ANNISTON RDO:112.8
DOWNTOWN TWR:118.8
UNICOM:122.95

KBFM Zoom In..

If you have problems with the map follow the link
https://www.worldairports.se/pages/airport.php?
ICAO=KBFM

Runways:

(A) RW 14 length 9618 ft width 150 ft
---- / hdg 140

(B) RW 18 length 7800 ft width 150 ft
---- / hdg 181

(C) RW 32 length 9618 ft width 150 ft
ILS 108.50 / hdg 320

(D) RW 36 length 7800 ft width 150 ft
---- / hdg 1

Location; KBFM
Day. 16 / Time. 03.53 Zulu
* Altimeter: 30.26
* Temperature: 04° c. 39.2°f.
* Wind from: 240° Speed 04 kn.
Dewpoint: 03° c.
Visibility: 10 Statute Miles.
Clouds: Clear (automated report).

KBFM 160353Z AUTO 24004KT 10SM CLR 04/03 A3026 RMK AO2 SLP246 T00390033


Wind From 240°
Speed 04 kn.

 
 
jpsmedia.com for Web Design worldairports.se 2018   terms of use